EW2549 Weather Reports


time (UTC)temp
C
wind
direction
speed
KPH
gust
KPH
rain 1hr
cm
rain 24hr
cm
rain mn
cm
humidity
%
barometer
mb
20260509181556 24 5 0.0 17.7 0.00 0.00 0.00 21 1005.0
20260509174555 23 304 8.0 29.0 0.00 0.00 0.00 18 1005.2
20260509173100 23 248 9.7 24.1 0.00 0.00 0.00 18 1005.1
20260509171553 23 350 0.0 33.8 0.00 0.00 0.00 21 1005.5
20260509170100 23 251 1.6 17.7 0.00 0.00 0.00 18 1005.3
20260509164550 23 341 0.0 9.7 0.00 0.00 0.00 20 1005.4
20260509163057 22 69 0.0 0.0 0.00 0.00 0.00 20 1005.4
20260509161551 22 312 0.0 6.4 0.00 0.00 0.00 20 1005.6
20260509160039 21 342 0.0 4.8 0.00 0.00 0.00 20 1005.7
20260509154539 20 19 0.0 3.2 0.00 0.00 0.00 21 1005.7
20260509153037 20 254 1.6 14.5 0.00 0.00 0.00 22 1005.8
20260509151530 19 203 6.4 17.7 0.00 0.00 0.00 21 1006.0
20260509150026 18 333 1.6 17.7 0.00 0.00 0.00 25 1006.2
20260509144522 17 248 17.7 29.0 0.00 0.00 0.00 24 1006.2
20260509143020 15 252 17.7 27.4 0.00 0.00 0.00 32 1006.1
20260509141523 14 260 17.7 29.0 0.00 0.00 0.00 34 1006.0
20260509140015 13 265 3.2 17.7 0.00 0.00 0.00 38 1006.1
20260509134515 13 267 0.0 11.3 0.00 0.00 0.00 41 1006.2
20260509133013 12 259 1.6 9.7 0.00 0.00 0.00 43 1006.2
20260509131513 12 243 0.0 0.0 0.00 0.00 0.00 46 1006.2
20260509124510 10 279 0.0 0.0 0.00 0.00 0.00 54 1006.0
20260509123009 10 308 0.0 0.0 0.00 0.00 0.00 53 1005.7
20260509121509 11 308 0.0 0.0 0.00 0.00 0.00 50 1005.5
20260509120007 10 331 0.0 0.0 0.00 0.00 0.00 46 1005.4
20260509114519 10 333 0.0 0.0 0.00 0.00 0.00 47 1005.2
20260509113007 11 323 0.0 0.0 0.00 0.00 0.00 49 1005.0
20260509111507 11 323 0.0 0.0 0.00 0.00 0.00 47 1005.0
20260509110006 12 250 0.0 0.0 0.00 0.00 0.00 45 1004.8
20260509104505 13 250 0.0 0.0 0.00 0.00 0.00 42 1004.7
20260509103005 14 250 0.0 0.0 0.00 0.00 0.00 37 1004.7
20260509101506 14 251 0.0 0.0 0.00 0.00 0.00 37 1004.9
20260509100003 14 254 0.0 3.2 0.00 0.00 0.00 37 1005.0
20260509094604 13 243 0.0 14.5 0.00 0.00 0.00 38 1005.0
20260509093056 11 259 11.3 27.4 0.00 0.00 0.00 46 1005.0
20260509091558 8 317 0.0 0.0 0.00 0.00 0.00 70 1004.9
20260509084550 9 233 0.0 0.0 0.00 0.00 0.00 69 1004.7
20260509083052 9 233 0.0 0.0 0.00 0.00 0.00 67 1004.8
20260509081544 10 231 0.0 0.0 0.00 0.00 0.00 65 1004.8
20260509080056 10 255 0.0 0.0 0.00 0.00 0.00 64 1005.0
20260509074539 10 293 0.0 0.0 0.00 0.00 0.00 62 1005.1
20260509073032 10 293 0.0 0.0 0.00 0.00 0.00 63 1005.2
20260509071530 10 267 0.0 0.0 0.00 0.00 0.00 63 1005.4
20260509070035 11 195 0.0 0.0 0.00 0.00 0.00 63 1005.2
20260509064526 11 195 0.0 0.0 0.00 0.00 0.00 65 1005.3
20260509063024 11 195 0.0 0.0 0.00 0.00 0.00 65 1005.4
20260509061522 11 195 0.0 0.0 0.00 0.00 0.00 64 1005.7
20260509060021 11 195 0.0 0.0 0.00 0.00 0.00 63 1005.8
20260509054616 11 201 0.0 0.0 0.00 0.00 0.00 63 1005.9
20260509053024 11 201 0.0 0.0 0.00 0.00 0.00 62 1006.2
20260509051515 11 221 0.0 0.0 0.00 0.00 0.00 63 1006.4
20260509050035 12 227 0.0 0.0 0.00 0.00 0.00 63 1006.6
20260509044514 12 227 0.0 0.0 0.00 0.00 0.00 63 1006.8
20260509043026 12 227 0.0 0.0 0.00 0.00 0.00 62 1007.0
20260509041513 12 174 0.0 0.0 0.00 0.00 0.00 63 1007.3
20260509040013 12 135 0.0 0.0 0.00 0.00 0.00 62 1007.4
20260509034512 13 135 0.0 0.0 0.00 0.00 0.00 60 1007.6
20260509033017 13 135 0.0 0.0 0.00 0.00 0.00 59 1007.7
20260509031511 14 135 0.0 0.0 0.00 0.00 0.00 56 1007.5
20260509030018 15 135 0.0 0.0 0.00 0.00 0.00 51 1007.2
20260509024509 15 135 0.0 0.0 0.00 0.00 0.00 48 1007.0
20260509023009 16 135 0.0 0.0 0.00 0.00 0.00 46 1006.9
20260509021509 16 135 0.0 0.0 0.00 0.00 0.00 46 1006.8
20260509020009 17 135 0.0 0.0 0.00 0.00 0.00 44 1006.5
20260509014507 17 135 0.0 0.0 0.00 0.00 0.00 43 1006.3
20260509013007 18 135 0.0 0.0 0.00 0.00 0.00 42 1006.3
20260509011508 18 135 0.0 0.0 0.00 0.00 0.00 41 1006.2
20260509010014 19 99 0.0 0.0 0.00 0.00 0.00 39 1006.1
20260509004506 20 100 0.0 0.0 0.00 0.00 0.00 38 1006.2
20260509003005 20 105 0.0 0.0 0.00 0.00 0.00 35 1006.0
20260509001504 21 105 0.0 3.2 0.00 0.00 0.00 34 1006.1
20260509000003 21 109 0.0 4.8 0.00 0.00 0.00 36 1006.2
20260508234600 21 110 0.0 4.8 0.00 0.00 0.00 35 1006.3
20260508231559 21 182 0.0 8.0 0.00 0.00 0.00 36 1006.4
20260508230058 21 172 3.2 8.0 0.00 0.00 0.00 36 1006.4
20260508224611 21 51 0.0 4.8 0.00 0.00 0.00 37 1006.4
20260508223053 21 248 0.0 8.0 0.00 0.00 0.00 38 1006.5
20260508221557 20 97 0.0 8.0 0.00 0.00 0.00 36 1006.7
20260508220049 20 47 0.0 0.0 0.00 0.00 0.00 41 1006.8
20260508214550 20 74 0.0 0.0 0.00 0.00 0.00 39 1006.8
20260508213045 20 82 0.0 11.3 0.00 0.00 0.00 41 1007.1
20260508211548 20 70 0.0 6.4 0.00 0.00 0.00 41 1007.2
20260508210042 19 235 0.0 8.0 0.00 0.00 0.00 41 1007.4
20260508204540 20 143 0.0 6.4 0.00 0.00 0.00 40 1007.5
20260508203037 19 103 0.0 11.3 0.00 0.00 0.00 42 1007.8
20260508201538 19 61 0.0 6.4 0.00 0.00 0.00 43 1007.7
20260508200041 18 94 0.0 6.4 0.00 0.00 0.00 44 1008.1
20260508194529 18 39 0.0 6.4 0.00 0.00 0.00 44 1008.2
20260508193028 18 49 0.0 3.2 0.00 0.00 0.00 42 1008.4
20260508191530 17 47 0.0 9.7 0.00 0.00 0.00 46 1008.5
20260508190026 18 69 0.0 6.4 0.00 0.00 0.00 45 1008.6
20260508184528 18 62 0.0 11.3 0.00 0.00 0.00 46 1008.8